| time (UTC) | temp C | wind direction | speed KPH | gust KPH | rain 1hr cm | rain 24hr cm | rain mn cm | humidity % | barometer mb |
| 20260509000012 | 17 | 191 | 0.0 | 0.0 | 0.00 | 0.00 | 0.00 | 77 | 1014.1 |
| 20260508234512 | 17 | 191 | 0.0 | 1.6 | 0.00 | 0.00 | 0.00 | 75 | 1013.8 |
| 20260508233014 | 18 | 191 | 0.0 | 1.6 | 0.00 | 0.00 | 0.00 | 72 | 1014.0 |
| 20260508231515 | 18 | 169 | 0.0 | 3.2 | 0.00 | 0.00 | 0.00 | 70 | 1014.1 |
| 20260508230015 | 18 | 169 | 0.0 | 3.2 | 0.00 | 0.00 | 0.00 | 70 | 1014.1 |
| 20260508224503 | 19 | 194 | 0.0 | 1.6 | 0.00 | 0.00 | 0.00 | 70 | 1014.2 |
| 20260508223009 | 20 | 194 | 0.0 | 3.2 | 0.00 | 0.00 | 0.00 | 68 | 1014.2 |
| 20260508221510 | 20 | 225 | 0.0 | 3.2 | 0.00 | 0.00 | 0.00 | 68 | 1014.2 |
| 20260508220011 | 20 | 234 | 0.0 | 3.2 | 0.00 | 0.00 | 0.00 | 66 | 1014.2 |
| 20260508214504 | 20 | 232 | 0.0 | 3.2 | 0.00 | 0.00 | 0.00 | 65 | 1014.1 |
| 20260508213004 | 21 | 180 | 0.0 | 4.8 | 0.00 | 0.00 | 0.00 | 63 | 1014.1 |
| 20260508211509 | 21 | 212 | 1.6 | 6.4 | 0.00 | 0.00 | 0.00 | 56 | 1014.3 |
| 20260508210018 | 21 | 128 | 0.0 | 4.8 | 0.00 | 0.00 | 0.00 | 59 | 1014.1 |
| 20260508204504 | 21 | 252 | 1.6 | 11.3 | 0.00 | 0.00 | 0.00 | 56 | 1014.1 |
| 20260508203004 | 21 | 122 | 0.0 | 3.2 | 0.00 | 0.00 | 0.00 | 58 | 1014.2 |
| 20260508201509 | 21 | 146 | 0.0 | 8.0 | 0.00 | 0.00 | 0.00 | 56 | 1014.4 |
| 20260508200012 | 22 | 207 | 1.6 | 6.4 | 0.00 | 0.00 | 0.00 | 55 | 1014.5 |
| 20260508194518 | 21 | 261 | 3.2 | 12.9 | 0.00 | 0.00 | 0.00 | 52 | 1014.8 |
| 20260508193005 | 21 | 113 | 1.6 | 9.7 | 0.00 | 0.00 | 0.00 | 53 | 1015.1 |
| 20260508191515 | 21 | 197 | 1.6 | 9.7 | 0.00 | 0.00 | 0.00 | 54 | 1015.4 |
| 20260508190012 | 22 | 115 | 1.6 | 4.8 | 0.00 | 0.00 | 0.00 | 53 | 1015.4 |
| 20260508184519 | 23 | 154 | 1.6 | 8.0 | 0.00 | 0.00 | 0.00 | 54 | 1015.6 |
| 20260508183022 | 22 | 180 | 3.2 | 11.3 | 0.00 | 0.00 | 0.00 | 52 | 1016.0 |
| 20260508181504 | 21 | 158 | 0.0 | 3.2 | 0.00 | 0.00 | 0.00 | 58 | 1016.1 |
| 20260508180010 | 21 | 180 | 1.6 | 4.8 | 0.00 | 0.00 | 0.00 | 54 | 1016.1 |
| 20260508174524 | 21 | 186 | 0.0 | 6.4 | 0.00 | 0.00 | 0.00 | 53 | 1016.5 |
| 20260508173021 | 21 | 136 | 3.2 | 9.7 | 0.00 | 0.00 | 0.00 | 53 | 1016.7 |
| 20260508171522 | 20 | 156 | 1.6 | 8.0 | 0.00 | 0.00 | 0.00 | 56 | 1016.8 |
| 20260508170006 | 20 | 165 | 0.0 | 6.4 | 0.00 | 0.00 | 0.00 | 57 | 1017.2 |
| 20260508164510 | 21 | 14 | 3.2 | 12.9 | 0.00 | 0.00 | 0.00 | 52 | 1017.3 |
| 20260508163022 | 21 | 139 | 1.6 | 6.4 | 0.00 | 0.00 | 0.00 | 55 | 1017.3 |
| 20260508161528 | 20 | 229 | 3.2 | 6.4 | 0.00 | 0.00 | 0.00 | 55 | 1017.5 |
| 20260508160023 | 20 | 138 | 0.0 | 8.0 | 0.00 | 0.00 | 0.00 | 57 | 1017.7 |
| 20260508154509 | 18 | 238 | 1.6 | 6.4 | 0.00 | 0.00 | 0.00 | 59 | 1018.1 |
| 20260508153016 | 19 | 132 | 1.6 | 11.3 | 0.00 | 0.00 | 0.00 | 59 | 1018.3 |
| 20260508151516 | 20 | 142 | 3.2 | 11.3 | 0.00 | 0.00 | 0.00 | 61 | 1018.3 |
| 20260508150025 | 19 | 268 | 1.6 | 6.4 | 0.00 | 0.00 | 0.00 | 62 | 1018.1 |
| 20260508144524 | 18 | 136 | 1.6 | 6.4 | 0.00 | 0.00 | 0.00 | 63 | 1017.9 |
| 20260508143012 | 17 | 60 | 1.6 | 4.8 | 0.00 | 0.00 | 0.00 | 67 | 1017.9 |
| 20260508141515 | 17 | 352 | 3.2 | 14.5 | 0.00 | 0.00 | 0.00 | 67 | 1018.0 |
| 20260508140026 | 17 | 40 | 4.8 | 11.3 | 0.00 | 0.00 | 0.00 | 72 | 1018.3 |
| 20260508134509 | 15 | 23 | 1.6 | 11.3 | 0.00 | 0.05 | 0.00 | 79 | 1018.2 |
| 20260508133009 | 14 | 56 | 0.0 | 8.0 | 0.00 | 0.13 | 0.00 | 88 | 1018.3 |
| 20260508131513 | 12 | 15 | 3.2 | 8.0 | 0.00 | 0.20 | 0.00 | 93 | 1018.2 |
| 20260508130018 | 11 | 5 | 0.0 | 4.8 | 0.00 | 0.25 | 0.00 | 95 | 1018.1 |
| 20260508124508 | 11 | 21 | 0.0 | 6.4 | 0.00 | 0.38 | 0.00 | 95 | 1017.8 |
| 20260508123008 | 10 | 23 | 3.2 | 6.4 | 0.00 | 0.53 | 0.00 | 95 | 1017.6 |
| 20260508121510 | 10 | 289 | 0.0 | 0.0 | 0.00 | 0.81 | 0.00 | 95 | 1017.5 |
| 20260508120015 | 9 | 289 | 0.0 | 0.0 | 0.00 | 1.09 | 0.00 | 94 | 1017.4 |
| 20260508114520 | 9 | 289 | 0.0 | 0.0 | 0.00 | 1.37 | 0.00 | 94 | 1017.1 |
| 20260508113006 | 8 | 289 | 0.0 | 0.0 | 0.00 | 1.52 | 0.00 | 94 | 1016.9 |
| 20260508111507 | 8 | 289 | 0.0 | 0.0 | 0.00 | 1.65 | 0.00 | 93 | 1016.5 |
| 20260508110017 | 8 | 289 | 0.0 | 0.0 | 0.00 | 1.73 | 0.00 | 93 | 1016.1 |
| 20260508104516 | 8 | 289 | 0.0 | 0.0 | 0.00 | 1.78 | 0.00 | 93 | 1016.0 |
| 20260508103028 | 8 | 289 | 0.0 | 1.6 | 0.00 | 1.78 | 0.00 | 93 | 1015.7 |
| 20260508101507 | 8 | 289 | 0.0 | 0.0 | 0.00 | 1.78 | 0.00 | 93 | 1015.6 |
| 20260508100008 | 8 | 289 | 0.0 | 0.0 | 0.00 | 1.78 | 0.00 | 93 | 1015.3 |
| 20260508094513 | 8 | 289 | 0.0 | 1.6 | 0.00 | 1.78 | 0.00 | 93 | 1015.2 |
| 20260508093016 | 8 | 289 | 0.0 | 0.0 | 0.00 | 1.80 | 0.00 | 92 | 1015.1 |
| 20260508091530 | 8 | 289 | 0.0 | 0.0 | 0.00 | 1.80 | 0.00 | 92 | 1015.0 |
| 20260508090006 | 8 | 289 | 0.0 | 0.0 | 0.00 | 1.80 | 0.00 | 92 | 1014.9 |
| 20260508084512 | 8 | 289 | 0.0 | 0.0 | 0.00 | 1.83 | 0.00 | 92 | 1014.5 |
| 20260508083013 | 8 | 289 | 0.0 | 0.0 | 0.00 | 1.85 | 0.00 | 92 | 1014.5 |
| 20260508081548 | 9 | 289 | 0.0 | 0.0 | 0.00 | 1.91 | 0.00 | 92 | 1014.6 |
| 20260508080024 | 9 | 289 | 0.0 | 0.0 | 0.00 | 1.96 | 0.00 | 92 | 1014.4 |
| 20260508074525 | 9 | 289 | 0.0 | 0.0 | 0.00 | 1.98 | 0.00 | 92 | 1014.5 |
| 20260508073015 | 10 | 289 | 0.0 | 0.0 | 0.00 | 1.98 | 0.00 | 91 | 1014.6 |
| 20260508071534 | 10 | 289 | 0.0 | 1.6 | 0.00 | 2.01 | 0.00 | 92 | 1014.6 |
| 20260508070024 | 10 | 284 | 0.0 | 0.0 | 0.00 | 2.08 | 0.00 | 91 | 1014.5 |
| 20260508064524 | 10 | 284 | 0.0 | 0.0 | 0.00 | 2.18 | 0.00 | 91 | 1014.4 |
| 20260508063043 | 10 | 284 | 0.0 | 0.0 | 0.00 | 2.24 | 0.00 | 90 | 1014.3 |
| 20260508061517 | 11 | 284 | 0.0 | 0.0 | 0.00 | 2.39 | 0.00 | 90 | 1014.2 |
| 20260508060002 | 11 | 284 | 0.0 | 0.0 | 0.00 | 2.62 | 0.00 | 90 | 1014.3 |
| 20260508054507 | 11 | 284 | 0.0 | 0.0 | 0.00 | 2.82 | 0.00 | 90 | 1014.5 |
| 20260508053007 | 11 | 284 | 0.0 | 0.0 | 0.00 | 3.23 | 0.00 | 90 | 1014.6 |
| 20260508051512 | 11 | 284 | 0.0 | 0.0 | 0.00 | 3.78 | 0.00 | 90 | 1014.6 |
| 20260508050013 | 12 | 284 | 0.0 | 0.0 | 0.00 | 4.01 | 0.00 | 89 | 1014.5 |
| 20260508044503 | 12 | 284 | 0.0 | 0.0 | 0.00 | 4.06 | 0.00 | 89 | 1014.4 |
| 20260508043003 | 12 | 284 | 0.0 | 0.0 | 0.00 | 4.09 | 0.00 | 88 | 1014.3 |
| 20260508041507 | 13 | 284 | 0.0 | 0.0 | 0.00 | 4.42 | 0.00 | 86 | 1014.2 |
| 20260508040014 | 13 | 284 | 0.0 | 0.0 | 0.00 | 4.72 | 0.00 | 83 | 1014.0 |
| 20260508034516 | 14 | 284 | 0.0 | 0.0 | 0.00 | 4.90 | 4.72 | 83 | 1013.8 |
| 20260508033024 | 14 | 284 | 0.0 | 0.0 | 0.00 | 4.90 | 4.72 | 82 | 1014.0 |
| 20260508031508 | 15 | 284 | 0.0 | 0.0 | 0.00 | 4.90 | 4.72 | 81 | 1014.1 |
| 20260508030011 | 15 | 284 | 0.0 | 3.2 | 0.00 | 4.93 | 4.72 | 79 | 1013.6 |
| 20260508024531 | 16 | 26 | 0.0 | 1.6 | 0.00 | 5.00 | 4.72 | 77 | 1013.5 |
| 20260508023025 | 17 | 26 | 0.0 | 0.0 | 0.00 | 5.11 | 4.72 | 73 | 1013.2 |
| 20260508021524 | 17 | 26 | 0.0 | 4.8 | 0.00 | 5.11 | 4.72 | 70 | 1013.2 |
| 20260508020010 | 17 | 223 | 0.0 | 6.4 | 0.00 | 5.18 | 4.72 | 69 | 1012.8 |
| 20260508014514 | 18 | 205 | 3.2 | 8.0 | 0.00 | 5.23 | 4.72 | 68 | 1012.3 |
| 20260508013017 | 18 | 222 | 1.6 | 9.7 | 0.00 | 5.31 | 4.72 | 67 | 1011.9 |
| 20260508011521 | 19 | 173 | 4.8 | 14.5 | 0.00 | 5.82 | 4.72 | 64 | 1011.8 |
| 20260508010032 | 20 | 327 | 3.2 | 14.5 | 0.00 | 6.40 | 4.72 | 63 | 1011.4 |
| 20260508004509 | 20 | 155 | 1.6 | 9.7 | 0.00 | 6.55 | 4.72 | 65 | 1011.3 |
| 20260508003015 | 21 | 190 | 3.2 | 11.3 | 0.00 | 6.55 | 4.72 | 63 | 1010.9 |
| 20260508001519 | 21 | 250 | 4.8 | 14.5 | 0.00 | 6.55 | 4.72 | 61 | 1010.5 |